Last 24 Hours

Red Mountain

10 Minute Data | America/Los_Angeles
as of 9/2/26 8:40 PM PDT
Date & Time Temp (°F) Dew Pt (°F) RH (%) Wind Spd (mph) Wind Dir (°) Wind Gust (mph) Wind Gst Dir (°) Daily Max Temp (°F) Daily Min Temp (°F)
9/2/26 - 1940 63.2 34.4 34 8.8 SW | 235 14.2 SW | 235 74.4 59.3
9/2/26 - 1930 63.7 34.6 34 9.0 WSW | 240 14.2 WSW | 246 74.4 59.3
9/2/26 - 1920 64.2 32.8 31 9.4 WSW | 242 15.0 WSW | 246 74.4 59.3
9/2/26 - 1910 64.0 34.9 34 9.2 WSW | 239 13.9 SW | 230 74.4 59.3
9/2/26 - 1900 64.1 37.8 38 9.0 WSW | 249 14.1 WSW | 240 74.4 59.3
9/2/26 - 1850 64.8 37.5 37 9.1 WSW | 246 14.5 WSW | 249 74.4 59.3
9/2/26 - 1840 64.6 39.6 40 9.9 WSW | 242 15.9 WSW | 251 74.4 59.3
9/2/26 - 1830 65.2 37.4 36 10.2 WSW | 242 14.1 WSW | 239 74.4 59.3
9/2/26 - 1820 66.9 36.0 32 9.4 SW | 230 13.4 SW | 222 74.4 59.3
9/2/26 - 1810 66.9 34.1 30 11.0 WSW | 240 16.7 WSW | 237 74.4 59.3
9/2/26 - 1800 67.8 30.0 24 11.5 SW | 232 15.6 SW | 223 74.4 59.3
9/2/26 - 1750 68.6 34.2 28 12.0 SW | 234 17.8 WSW | 247 74.4 59.3
9/2/26 - 1740 68.9 35.9 30 13.4 SW | 234 20.0 SW | 236 74.4 59.3
9/2/26 - 1730 69.6 33.8 27 13.6 SW | 234 19.2 SW | 235 74.4 59.3
9/2/26 - 1720 70.6 33.4 25 12.8 SW | 233 18.9 WSW | 240 74.4 59.3
9/2/26 - 1710 70.3 34.5 27 13.5 SW | 233 20.9 WSW | 250 74.4 59.3
9/2/26 - 1700 70.8 32.2 24 11.8 SW | 229 20.1 SW | 220 74.4 59.3
9/2/26 - 1650 71.8 31.0 22 11.1 SW | 230 18.4 WSW | 253 74.4 59.3
9/2/26 - 1640 71.0 30.1 22 14.0 WSW | 245 21.6 WSW | 240 74.4 59.3
9/2/26 - 1630 71.4 30.8 22 12.8 SW | 234 21.3 SW | 222 74.4 59.3
9/2/26 - 1620 70.9 31.6 23 13.3 SW | 234 21.4 SW | 225 74.4 59.3
9/2/26 - 1610 70.7 31.7 24 13.7 SW | 233 23.5 WSW | 239 74.4 59.3
9/2/26 - 1600 70.6 33.3 25 13.5 WSW | 237 21.8 WSW | 243 74.4 59.3
9/2/26 - 1550 70.7 35.4 27 14.0 SW | 231 21.0 SW | 219 74.4 59.3
9/2/26 - 1540 72.2 35.2 26 12.6 SW | 234 21.8 WSW | 256 74.4 59.3
9/2/26 - 1530 72.3 33.8 24 10.7 SW | 235 18.4 WSW | 238 74.4 59.3
9/2/26 - 1520 73.3 34.9 25 10.3 SW | 235 19.4 SW | 226 74.2 59.3
9/2/26 - 1510 70.9 35.9 28 13.1 SW | 227 21.6 SW | 233 73.4 59.3
9/2/26 - 1500 71.2 37.0 29 12.4 SW | 235 20.2 SW | 231 73.4 59.3
9/2/26 - 1450 70.3 35.9 28 12.1 WSW | 242 19.4 SSW | 210 73.4 59.3
9/2/26 - 1440 70.3 35.0 27 10.9 SW | 233 20.3 WSW | 240 73.4 59.3
9/2/26 - 1430 70.3 35.5 28 10.4 SW | 234 17.1 WSW | 251 73.4 59.3
9/2/26 - 1420 71.6 34.5 26 10.8 SW | 222 18.3 WSW | 246 73.4 59.3
9/2/26 - 1410 71.8 35.2 26 10.7 SW | 231 22.9 WSW | 244 73.4 59.3
9/2/26 - 1400 71.7 33.8 25 10.1 SW | 227 21.5 WSW | 237 73.4 59.3
9/2/26 - 1350 70.6 32.5 24 13.4 WSW | 246 20.8 W | 267 73.1 59.3
9/2/26 - 1340 70.5 30.2 22 10.3 SW | 235 21.8 WSW | 238 73.1 59.3
9/2/26 - 1330 71.2 29.7 21 12.8 WSW | 244 18.8 SSW | 213 72.8 59.3
9/2/26 - 1320 71.5 26.9 19 10.5 SW | 228 18.3 SW | 232 72.8 59.3
9/2/26 - 1310 70.5 25.3 18 10.6 WSW | 239 19.1 WSW | 255 72.8 59.3
9/2/26 - 1300 70.8 24.8 18 9.0 SW | 226 17.5 WSW | 247 72.8 59.3
9/2/26 - 1250 70.5 25.1 18 12.5 SW | 233 19.2 WSW | 250 72.8 59.3
9/2/26 - 1240 70.8 28.2 20 9.7 SW | 226 18.2 SW | 232 72.5 59.3
9/2/26 - 1230 70.8 26.3 19 9.5 SW | 231 19.8 WSW | 240 72.4 59.3
9/2/26 - 1220 69.9 25.6 19 7.5 SW | 224 14.6 SW | 230 72.4 59.3
9/2/26 - 1210 70.4 25.1 18 10.4 SW | 232 17.5 WSW | 256 72.4 59.3
9/2/26 - 1200 71.2 24.5 17 8.8 SW | 233 15.0 SW | 233 72.4 59.3
9/2/26 - 1150 70.3 24.4 18 7.0 SSW | 211 14.0 SW | 214 72.3 59.3
9/2/26 - 1140 69.6 23.9 18 8.7 SW | 227 14.8 SW | 223 71.1 59.3
9/2/26 - 1130 69.9 25.1 18 7.9 WSW | 237 16.7 W | 272 71.1 59.3
9/2/26 - 1120 69.2 25.9 20 8.5 WSW | 252 15.5 W | 271 70.3 59.3
9/2/26 - 1110 68.3 26.9 21 8.7 SW | 234 14.8 WSW | 250 69.4 59.3
9/2/26 - 1100 68.3 28.4 22 7.4 W | 262 15.1 WSW | 256 69.4 59.3
9/2/26 - 1050 67.4 26.1 21 8.6 SW | 233 18.3 SW | 236 69.4 59.3
9/2/26 - 1040 67.5 27.0 22 7.8 WSW | 253 14.0 WSW | 255 69.4 59.3
9/2/26 - 1030 67.5 25.2 20 8.3 W | 264 14.0 WSW | 254 69.4 59.3
9/2/26 - 1020 68.7 23.9 18 6.0 SW | 227 11.5 SW | 220 69.4 59.3
9/2/26 - 1010 67.7 23.4 19 5.8 SW | 224 13.1 WSW | 252 68.6 59.3
9/2/26 - 1000 67.8 22.3 18 4.9 SW | 226 9.0 SW | 224 68.6 59.3
9/2/26 - 0950 66.6 21.4 18 5.0 SW | 225 9.2 SW | 227 67.0 59.3
9/2/26 - 0940 66.2 21.5 18 4.6 SW | 221 8.3 SW | 234 66.7 59.3
9/2/26 - 0930 65.7 21.3 18 4.6 WSW | 237 7.7 WSW | 246 66.1 59.3
9/2/26 - 0920 65.4 20.7 18 3.7 WSW | 249 8.3 WSW | 250 65.5 59.3
9/2/26 - 0910 64.6 21.2 19 2.7 WSW | 257 4.2 WSW | 238 65.2 59.3
9/2/26 - 0900 64.3 21.6 19 2.7 SW | 226 3.9 SW | 224 65.2 59.3
9/2/26 - 0850 64.0 21.0 19 2.3 SW | 214 3.3 SW | 215 65.2 59.3
9/2/26 - 0840 63.6 20.7 19 2.5 SW | 218 3.6 SW | 230 65.2 59.3
9/2/26 - 0830 63.4 20.4 19 3.2 SW | 232 4.2 WSW | 252 65.2 59.3
9/2/26 - 0820 63.5 20.1 19 2.7 WSW | 237 3.4 WSW | 238 65.2 59.3
9/2/26 - 0810 63.5 20.0 19 3.6 SW | 227 4.3 SW | 228 65.2 59.3
9/2/26 - 0800 63.6 20.2 19 4.6 SW | 218 5.6 SW | 226 65.2 59.3
9/2/26 - 0750 63.8 20.1 18 3.4 SW | 216 4.5 SW | 214 65.2 59.3
9/2/26 - 0740 64.6 19.7 18 2.2 WSW | 246 3.9 W | 270 65.2 59.3
9/2/26 - 0730 65.0 20.0 18 2.3 NW | 305 4.2 WNW | 299 65.2 59.3
9/2/26 - 0720 64.9 19.6 17 2.5 NNW | 332 3.8 WNW | 302 64.9 59.3
9/2/26 - 0710 64.7 19.3 17 2.1 NNW | 347 5.2 NW | 325 64.9 59.3
9/2/26 - 0700 64.4 18.9 17 3.0 NNW | 334 4.5 NNW | 345 64.9 59.3
9/2/26 - 0650 64.4 18.9 17 3.7 WNW | 284 5.4 W | 267 64.9 59.3
9/2/26 - 0640 64.6 18.4 17 5.5 W | 271 7.4 WNW | 286 64.9 59.3
9/2/26 - 0630 64.7 17.7 16 5.0 W | 280 7.3 W | 281 64.9 59.3
9/2/26 - 0620 64.5 18.3 17 4.5 W | 268 7.0 W | 268 64.9 59.3
9/2/26 - 0610 64.4 18.4 17 4.9 NW | 304 8.2 WNW | 293 64.9 59.3
9/2/26 - 0600 64.3 19.6 18 6.8 WNW | 284 10.7 W | 268 64.6 59.3
9/2/26 - 0550 64.2 19.4 18 9.1 W | 269 11.4 W | 275 64.6 59.3
9/2/26 - 0540 64.1 18.5 17 8.6 W | 269 11.2 W | 275 64.3 59.3
9/2/26 - 0530 64.2 18.6 17 7.4 W | 260 10.3 W | 262 64.3 59.3
9/2/26 - 0520 64.0 18.4 17 5.3 WSW | 257 9.8 W | 273 64.3 59.3
9/2/26 - 0510 63.2 19.8 19 3.6 W | 274 5.4 WNW | 288 63.6 59.3
9/2/26 - 0500 62.9 22.9 21 1.9 W | 271 4.7 W | 260 63.4 59.3
9/2/26 - 0450 63.4 23.1 21 4.9 WSW | 243 5.6 SW | 235 63.4 59.3
9/2/26 - 0440 63.1 23.6 22 4.8 SW | 232 5.6 SW | 234 63.3 59.3
9/2/26 - 0430 62.7 23.4 22 3.2 SW | 215 5.0 SW | 219 63.0 59.3
9/2/26 - 0420 62.2 22.0 21 2.8 SSW | 200 3.4 SSW | 213 62.5 59.3
9/2/26 - 0410 62.0 21.7 21 3.0 SSW | 197 3.8 SSW | 209 62.1 59.3
9/2/26 - 0400 61.9 21.9 21 3.9 SSW | 206 4.5 SSW | 205 62.0 59.3
9/2/26 - 0350 61.8 22.9 22 4.5 SSW | 207 5.0 SSW | 203 61.9 59.3
9/2/26 - 0340 61.7 23.8 23 3.5 SSW | 193 5.0 SSW | 200 61.9 59.3
9/2/26 - 0330 61.6 24.7 24 3.9 SSW | 202 4.5 SSW | 208 61.8 59.3
9/2/26 - 0320 60.9 26.6 27 3.6 SW | 235 4.3 SW | 214 61.0 59.3
9/2/26 - 0310 60.6 26.3 27 3.8 WSW | 248 4.4 WSW | 237 60.7 59.3
9/2/26 - 0300 60.5 30.5 32 4.6 SW | 234 5.1 SW | 229 60.5 59.3
9/2/26 - 0250 60.4 27.5 29 5.0 WSW | 238 5.7 WSW | 241 60.5 59.3
9/2/26 - 0240 60.0 23.7 25 5.2 WSW | 242 5.7 SW | 236 60.2 59.3
9/2/26 - 0230 59.6 26.7 28 4.6 W | 259 5.2 WSW | 247 60.2 59.3
9/2/26 - 0220 59.5 25.5 27 4.0 WSW | 256 5.0 WSW | 258 60.2 59.3
9/2/26 - 0210 59.5 27.5 29 3.0 WSW | 255 3.8 WSW | 256 60.2 59.3
9/2/26 - 0200 59.4 23.1 25 4.1 WSW | 249 5.3 WSW | 241 60.2 59.3
9/2/26 - 0150 59.5 22.3 24 5.4 WSW | 247 6.9 WSW | 248 60.2 59.4
9/2/26 - 0140 59.7 22.6 24 6.3 WSW | 245 7.9 WSW | 243 60.2 59.5
9/2/26 - 0130 59.9 22.6 24 6.6 WSW | 244 7.7 WSW | 242 60.2 59.6
9/2/26 - 0120 60.2 22.1 23 6.6 WSW | 242 7.6 WSW | 244 60.2 59.6
9/2/26 - 0110 59.8 21.9 23 6.1 SW | 231 6.7 SW | 234 60.0 59.6
9/2/26 - 0100 59.5 22.1 23 6.5 SW | 232 7.4 SW | 231 76.0 59.3
9/2/26 - 0050 59.4 22.3 24 7.3 SW | 222 9.7 SW | 215 76.0 59.3
9/2/26 - 0040 59.4 22.2 24 8.6 SW | 219 10.2 SW | 220 76.0 59.3
9/2/26 - 0030 59.3 22.2 24 8.9 SW | 225 11.2 SW | 222 76.0 59.3
9/2/26 - 0020 59.3 21.9 23 8.9 SW | 221 11.0 SW | 227 76.0 59.3
9/2/26 - 0010 59.5 21.7 23 9.5 SW | 214 11.3 SW | 220 76.0 59.4
9/2/26 - 0000 59.9 21.3 22 8.8 SW | 224 11.2 SW | 229 76.0 59.6
9/1/26 - 2350 60.4 21.4 22 9.2 WSW | 238 12.6 WSW | 241 76.0 60.1
9/1/26 - 2340 60.9 21.5 22 10.3 WSW | 241 13.9 WSW | 249 76.0 60.6
9/1/26 - 2330 61.1 21.5 22 10.4 WSW | 237 13.4 SW | 234 76.0 60.9
9/1/26 - 2320 61.5 21.4 21 10.0 SW | 234 13.6 SW | 229 76.0 61.2
9/1/26 - 2310 61.5 21.6 21 11.2 SW | 236 13.9 WSW | 237 76.0 61.4
9/1/26 - 2300 61.7 21.0 21 10.1 WSW | 240 13.7 WSW | 237 76.0 61.5
9/1/26 - 2250 61.8 20.4 20 9.3 WSW | 237 13.1 SW | 226 76.0 61.6
9/1/26 - 2240 62.0 21.2 21 6.8 WSW | 239 10.3 WSW | 237 76.0 61.8
9/1/26 - 2230 62.4 21.8 21 5.8 WSW | 243 8.6 WSW | 240 76.0 62.1
9/1/26 - 2220 62.6 22.4 21 7.5 WSW | 244 9.9 WSW | 244 76.0 62.3
9/1/26 - 2210 62.7 22.3 21 6.4 WSW | 249 8.6 W | 262 76.0 62.3
9/1/26 - 2200 62.7 21.8 21 6.5 SW | 234 8.3 SW | 230 76.0 62.3
9/1/26 - 2150 62.6 23.0 22 5.3 SW | 236 7.7 WSW | 240 76.0 62.3
9/1/26 - 2140 63.0 26.8 25 4.5 WSW | 252 6.1 WSW | 253 76.0 62.3
9/1/26 - 2130 63.2 28.2 26 4.5 WSW | 257 6.6 W | 260 76.0 62.3
9/1/26 - 2120 63.3 28.8 27 5.5 W | 260 7.3 W | 271 76.0 62.3
9/1/26 - 2110 63.4 28.2 26 4.8 WSW | 256 7.1 W | 260 76.0 62.3
9/1/26 - 2100 63.1 25.9 24 5.2 WSW | 247 7.2 WSW | 250 76.0 62.3
9/1/26 - 2050 62.7 22.2 21 5.3 WSW | 243 7.2 SW | 227 76.0 62.3
9/1/26 - 2040 62.6 22.9 22 6.2 WSW | 249 8.5 W | 263 76.0 62.3
Max 73.3 39.6 40 14.0 - 23.5 - 76.0 62.3
Avg 65.3 25.9 23 7.5 - 11.7 - - -
Min 59.3 17.7 16 1.9 - 3.3 - 60.0 59.3